sat.trackr.live / text

‹ back to catalog

KOMPSAT-3A

NORAD 40536 · 2015-014A

PAYLOAD ACTIVE UNKNOWN

§ Identity

Operator
Country
SKOR
Launch date
2015-03-25
Launch site
DLS
Launch vehicle
Mass (kg)
RCS (m²)
5.36

Purposes: earth_obs

External: N2YO · Heavens-Above · Gunter

§ Orbital elements

Epoch: 2026-05-25T05:53:37.634208Z

Period
92.73 min
Inclination
97.6887°
Eccentricity
0.0054982
Mean motion
15.52847699 rev/d
Perigee alt
371.1 km
Apogee alt
445.7 km
Semi-major
6,786.6 km
B*
3.5948e-4
RAAN
134.9502°
Arg perigee
259.7505°
Mean anomaly
99.7544°
Rev number
61,825

§ Raw data

KOMPSAT-3A1 40536U 15014A   26145.24557447  .00023713  00000+0  35948-3 0  99922 40536  97.6887 134.9502 0054982 259.7505  99.7544 15.52847699618256

JSON: /api/v1/satellites/40536 · /tle

For live sub-satellite position, see the globe view (requires WebGL).

§ Visibility from observer

Set your observer location to see the next 7 days of passes ≥ 10°. The values pass through the URL so the page stays shareable.

No JS? Fill the form by hand. The geolocation button needs JavaScript.